Location: Home
(42.5358°N, 72.7383°W)
Time: 22:31:41
(UTC-05:00)

Altair - Pass Details

Date: 11 December 2021
Orbit: 1501 x 1683 km, 47.2° (Epoch: 26 January)

Event Time Altitude Azimuth Distance (km) Brightness Sun altitude
Rises 19:32:28 0° 296° (WNW) 4,700 10.9 -34.9°
Reaches altitude 10° 19:35:37 10° 292° (WNW) 3,697 10.2 -35.5°
Maximum altitude 19:44:33 56° 218° (SW) 1,747 7.8 -37.2°
Enters shadow 19:45:53 52° 189° (S) 1,811 7.7 -37.4°
